Location: Unspecified
(41.1850°N, 73.2650°W)
Time: 09:23:00
(UTC+00:00)

ARIANE 6 FM1 Upper Stage - Pass Details

Date: 17 February 2026
Orbit: 523 x 607 km, 62.0° (Epoch: 7 March)

Event Time Altitude Azimuth Distance (km) Brightness Sun altitude
Rises 00:04:21 0° 326° (NW) 2,657 6.6 -18.6°
Reaches altitude 10° 00:06:34 10° 331° (NNW) 1,766 5.6 -19.0°
Maximum altitude 00:10:28 56° 50° (NE) 633 2.6 -19.8°
Enters shadow 00:10:37 55° 61° (ENE) 636 2.6 -19.8°
